Location: Arroyo de Valdeoliva
(40.1604°N, 4.9878°W)
Time: 21:24:03
(UTC+00:00)

SPOT 1/Viking Rocket - Pass Details

Date: 13 March 2026
Orbit: 773 x 788 km, 98.2° (Epoch: 11 April)

Event Time Altitude Azimuth Distance (km) Brightness Sun altitude
Rises 19:28:42 0° 203° (SSW) 3,246 7.0 -13.0°
Reaches altitude 10° 19:31:34 10° 219° (SW) 2,326 6.4 -13.6°
Maximum altitude 19:35:22 21° 267° (W) 1,717 6.3 -14.3°
Drops below altitude 10° 19:39:11 10° 315° (NW) 2,346 6.8 -15.0°
Sets 19:42:06 0° 332° (NNW) 3,283 7.3 -15.6°
